Regional Weather Roundup
Issued by NWS

Home | Current Version | Previous Version | Text Only | Print | Product List | Glossary Off
Versions: 1 2 3 4 5 6 7 8 9 10 11 12 13 14 15 16 17 18 19 20 21 22 23 24 25 26 27 28 29 30 31 32 33 34 35 36 37 38 39 40 41 42 43 44 45 46 47 48 49 50

000
ASUS43 KLSX 280207
RWRMO

WEATHER SUMMARY FOR MISSOURI
NATIONAL WEATHER SERVICE SPRINGFIELD MO
800 PM CST TUE JAN 27 2015

NOTE: "FAIR" INDICATES FEW OR NO CLOUDS BELOW 12,000 FEET WITH NO
       SIGNIFICANT WEATHER AND/OR OBSTRUCTIONS TO VISIBILITY.
       CURRENT SKY AND/OR WEATHER CONDITIONS ARE NOT AVAILABLE FOR
       CHILLICOTHE AND FARMINGTON.

MOZ001>031-035>038-043-044-053-054-280300-
...NORTHERN AND WESTERN MISSOURI...

CITY           SKY/WX    TMP DP  RH WIND       PRES   REMARKS
KANSAS CTY INT CLEAR     45  32  60 SE14      30.09S
KANSAS C DTWN  CLEAR     48  30  49 E7        30.10S
LEE`S SUMMIT   CLEAR     44  31  60 E8        30.11S
ST JOSEPH      CLEAR     44  31  60 SE8       30.09S
CHILLICOTHE      N/A     40  32  73 E5        30.15R
KIRKSVILLE     CLEAR     33  31  92 E8        30.18R WCI  26

$$
MOZ066>068-077>081-088>096-101>105-280300-
...SOUTHWEST MISSOURI...

CITY           SKY/WX    TMP DP  RH WIND       PRES   REMARKS
SPRINGFIELD    CLEAR     40  27  59 E7        30.11F
JOPLIN         CLEAR     50  27  40 E7        30.09S

$$
MOZ032>034-039>042-045>050-055>058-069>072-280300-
...CENTRAL MISSOURI...

CITY           SKY/WX    TMP DP  RH WIND       PRES   REMARKS
COLUMBIA       CLEAR     39  32  76 E8        30.16S
JEFFERSON CITY CLEAR     40  31  70 E6        30.17S
ROLLA          CLEAR     39  29  67 E7        30.15S
SEDALIA        CLEAR     41  31  67 E6        30.14F
WHITEMAN AFB   CLEAR     41  31  68 SE6       30.12S
WARRENSBURG    CLEAR     41  32  70 E3        30.13R
OSAGE BEACH    CLEAR     45  28  53 E6        30.15S

$$
MOZ051-052-059>065-280300-
...EAST CENTRAL MISSOURI...

CITY           SKY/WX    TMP DP  RH WIND       PRES   REMARKS
ST LOUIS INTL  CLEAR     33  27  78 E8        30.24R WCI  26
SPIRIT OF STL  FAIR      33  28  81 E8        30.22R WCI  26
ST CHARLES     CLEAR     31  28  89 E6        30.24S WCI  25

$$
MOZ072>076-082>087-097>100-106>115-280300-
...SOUTH CENTRAL AND SOUTHEAST MISSOURI...

CITY           SKY/WX    TMP DP  RH WIND       PRES   REMARKS
CAPE GIRARDEAU CLEAR     35  29  78 NE9       30.22R WCI  28
FARMINGTON     CLEAR     36  28  75 MISG      30.22S
POPLAR BLUFF   CLEAR     41  33  73 E7        30.20S
WEST PLAINS    CLEAR     43  27  53 E3        30.16S

$$



USA.gov is the U.S. government's official web portal to all federal, state and local government web resources and services.